DW1011 Weather Reports


Display with metric or nautical units.
time (UTC)temp
F
wind
direction
speed
MPH
gust
MPH
rain 1hr
in
rain 24hr
in
rain mn
in
humidity
%
barometer
mb
20260906220058 84 360 2.0 8.0 0.00 0.00 0.00 35 1017.5
20260906214555 85 360 0.0 9.0 0.00 0.00 0.00 36 1017.8
20260906213101 85 360 5.0 9.0 0.00 0.00 0.00 35 1018.0
20260906211603 85 360 3.0 11.0 0.00 0.00 0.00 34 1018.1
20260906204622 83 119 3.0 11.0 0.00 0.00 0.00 34 1018.7
20260906203100 84 360 3.0 8.0 0.00 0.00 0.00 35 1018.8
20260906201606 84 360 3.0 10.0 0.00 0.00 0.00 34 1018.9
20260906200053 84 46 2.0 11.0 0.00 0.00 0.00 38 1018.9
20260906194553 83 47 6.0 10.0 0.00 0.00 0.00 37 1018.9
20260906193059 82 0 2.0 11.0 0.00 0.00 0.00 42 1019.1
20260906191625 81 360 2.0 8.0 0.00 0.00 0.00 45 1019.4
20260906190104 80 23 4.0 10.0 0.00 0.00 0.00 45 1019.5
20260906184602 80 360 1.0 9.0 0.00 0.00 0.00 47 1019.9
20260906183107 80 360 3.0 9.0 0.00 0.00 0.00 46 1020.2
20260906181606 79 360 1.0 9.0 0.00 0.00 0.00 47 1020.4
20260906180117 79 360 2.0 6.0 0.00 0.00 0.00 48 1020.8
20260906174607 78 360 2.0 12.0 0.00 0.00 0.00 52 1020.8
20260906173054 77 360 2.0 8.0 0.00 0.00 0.00 54 1022.0
20260906171604 76 360 3.0 10.0 0.00 0.00 0.00 55 1022.2
20260906170106 75 360 1.0 8.0 0.00 0.00 0.00 58 1022.4
20260906164603 73 360 2.0 6.0 0.00 0.00 0.00 61 1022.5
20260906163058 72 360 1.0 9.0 0.00 0.00 0.00 62 1022.5
20260906161603 71 0 1.0 8.0 0.00 0.00 0.00 63 1022.5
20260906154604 71 360 1.0 6.0 0.00 0.00 0.00 66 1022.5
20260906153056 69 360 2.0 5.0 0.00 0.00 0.00 69 1022.5
20260906151553 68 0 1.0 5.0 0.00 0.00 0.00 72 1022.5
20260906150105 67 46 0.0 5.0 0.00 0.00 0.00 75 1022.5
20260906144600 66 0 0.0 4.0 0.00 0.00 0.00 77 1022.8
20260906143112 66 53 1.0 5.0 0.00 0.00 0.00 74 1022.7
20260906141603 65 38 3.0 7.0 0.00 0.00 0.00 77 1022.3
20260906140059 64 360 7.0 11.0 0.00 0.00 0.00 79 1022.4
20260906134604 64 360 8.0 10.0 0.00 0.00 0.00 79 1022.3
20260906133111 63 332 5.0 9.0 0.00 0.00 0.00 80 1022.2
20260906131604 63 360 2.0 5.0 0.00 0.00 0.00 79 1022.2
20260906130058 63 355 1.0 2.0 0.00 0.00 0.00 78 1022.1
20260906124551 63 0 0.0 2.0 0.00 0.00 0.00 79 1021.9
20260906123111 63 360 0.0 3.0 0.00 0.00 0.00 77 1021.9
20260906121557 63 360 2.0 4.0 0.00 0.00 0.00 76 1021.8
20260906120119 64 360 0.0 2.0 0.00 0.00 0.00 74 1021.8
20260906114632 64 360 1.0 3.0 0.00 0.00 0.00 73 1021.7
20260906113053 64 360 2.0 4.0 0.00 0.00 0.00 74 1021.7
20260906111607 64 360 0.0 4.0 0.00 0.00 0.00 72 1021.6
20260906104600 64 360 3.0 6.0 0.00 0.00 0.00 72 1021.8
20260906103054 64 360 3.0 8.0 0.00 0.00 0.00 68 1021.7
20260906101550 65 360 3.0 6.0 0.00 0.00 0.00 67 1021.7
20260906100103 65 360 2.0 4.0 0.00 0.00 0.00 64 1021.6
20260906094604 66 360 1.0 3.0 0.00 0.00 0.00 63 1021.6
20260906093105 66 23 0.0 2.0 0.00 0.00 0.00 61 1021.6
20260906091601 67 360 5.0 11.0 0.00 0.00 0.00 59 1020.9
20260906084642 67 32 3.0 8.0 0.00 0.00 0.00 54 1020.7
20260906083052 68 360 2.0 6.0 0.00 0.00 0.00 51 1020.6
20260906081551 70 0 0.0 0.0 0.00 0.00 0.00 45 1020.7
20260906080103 71 0 0.0 0.0 0.00 0.00 0.00 44 1020.7
20260906074602 0 0.0 0.0 0.00 0.00 0.00 1020.7
20260906073055 0 0.0 0.0 0.00 0.00 0.00 1020.9
20260906071553 0 0.0 0.0 0.00 0.00 0.00 1020.7
20260906070059 0 0.0 0.0 0.00 0.00 0.00 1020.7
20260906064553 0 0.0 0.0 0.00 0.00 0.00 1020.7
20260906063102 0 0.0 0.0 0.00 0.00 0.00 1020.7
20260906061554 0 0.0 0.0 0.00 0.00 0.00 1020.7
20260906060100 0 0.0 0.0 0.00 0.00 0.00 1020.9
20260906054637 0 0.0 0.0 0.00 0.00 0.00 1021.1
20260906053059 0 0.0 0.0 0.00 0.00 0.00 1021.4
20260906051554 0 0.0 0.0 0.00 0.00 0.00 1021.0
20260906050108 0 0.0 0.0 0.00 0.00 0.00 1020.7
20260906044601 0 0.0 0.0 0.00 0.00 0.00 1020.6
20260906043056 77 0 0.0 12.0 0.00 0.00 0.00 34 1020.4
20260906041604 75 177 11.0 14.0 0.00 0.00 0.00 37 1020.5
20260906034600 76 360 4.0 8.0 0.00 0.00 0.00 36 1019.6
20260906033131 77 360 0.0 3.0 0.00 0.00 0.00 36 1019.6
20260906031615 77 76 0.0 4.0 0.00 0.00 0.00 35 1019.6
20260906024606 81 360 2.0 10.0 0.00 0.00 0.00 30 1018.9
20260906023104 81 360 7.0 12.0 0.00 0.00 0.00 30 1018.6
20260906021612 81 360 3.0 10.0 0.00 0.00 0.00 30 1018.7
20260906020108 81 360 9.0 13.0 0.00 0.00 0.00 30 1018.7
20260906014555 81 360 9.0 15.0 0.00 0.00 0.00 30 1018.6
20260906013051 81 360 11.0 16.0 0.00 0.00 0.00 30 1018.4
20260906011553 82 360 13.0 20.0 0.00 0.00 0.00 30 1018.6
20260906010100 82 360 12.0 19.0 0.00 0.00 0.00 29 1018.5
20260906004553 83 360 15.0 21.0 0.00 0.00 0.00 28 1018.6
20260906003054 84 360 11.0 19.0 0.00 0.00 0.00 27 1018.9
20260906001554 86 360 12.0 17.0 0.00 0.00 0.00 24 1018.7
20260906000106 86 360 9.0 17.0 0.00 0.00 0.00 25 1018.6
20260905234602 86 360 11.0 18.0 0.00 0.00 0.00 25 1018.7
20260905233056 87 360 10.0 15.0 0.00 0.00 0.00 23 1018.4
20260905231554 88 20 4.0 9.0 0.00 0.00 0.00 23 1018.3
20260905230100 88 16 9.0 13.0 0.00 0.00 0.00 22 1018.1
20260905224553 88 360 0.0 9.0 0.00 0.00 0.00 22 1018.0
20260905223104 90 360 5.0 9.0 0.00 0.00 0.00 21 1018.0
20260905221604 90 0 0.0 10.0 0.00 0.00 0.00 21 1018.0